This is the latest recevied weather packets stored in our database for station/object WJ9H. If no packets are shown the sender has not sent any weather packets the latest 1 day(s).
| Time | Temp. | Humidity | Pressure | Rain* | Wind** | Luminosity | Snow |
|---|---|---|---|---|---|---|---|
| 1777988377 | 10.56° C | - | 1009.9 hPa | 0 mm | 1.79 m/s, 302° | - | - |
| 1777988235 | 10° C | - | 1009.9 hPa | 0 mm | 2.24 m/s, 305° | - | - |
| 1777988088 | 10.56° C | - | 1009.9 hPa | 0 mm | 1.79 m/s, 300° | - | - |
| 1777987779 | 10° C | - | 1009.9 hPa | 0 mm | 2.24 m/s, 305° | - | - |
| 1777987451 | 9.44° C | - | 1009.9 hPa | 0 mm | 2.24 m/s, 302° | - | - |
| 1777987179 | 10° C | - | 1010.2 hPa | 0 mm | 2.24 m/s, 316° | - | - |
| 1777987178 | 9.44° C | - | 1009.9 hPa | 0 mm | 2.24 m/s, 302° | - | - |
| 1777986888 | 8.89° C | - | 1009.9 hPa | 0 mm | 1.79 m/s, 283° | - | - |
| 1777986579 | 10° C | - | 1010.2 hPa | 0 mm | 2.24 m/s, 316° | - | - |
| 1777986327 | 8.33° C | - | 1010.2 hPa | 0 mm | 3.13 m/s, 322° | - | - |
| 1777985979 | 8.33° C | - | 1010.2 hPa | 0 mm | 3.13 m/s, 322° | - | - |
| 1777985687 | 7.78° C | - | 1010.2 hPa | 0 mm | 2.68 m/s, 328° | - | - |
| 1777985437 | 8.33° C | - | 1009.9 hPa | 0 mm | 1.34 m/s, 287° | - | - |
| 1777985376 | 8.33° C | - | 1009.9 hPa | 0 mm | 1.34 m/s, 287° | - | - |
| 1777984921 | 8.33° C | - | 1009.9 hPa | 0 mm | 1.79 m/s, 315° | - | - |
| 1777984777 | 8.33° C | - | 1009.9 hPa | 0 mm | 1.79 m/s, 315° | - | - |
| 1777984634 | 8.33° C | - | 1009.9 hPa | 0 mm | 1.79 m/s, 326° | - | - |
| 1777984487 | 8.33° C | - | 1010.2 hPa | 0 mm | 2.68 m/s, 325° | - | - |
| 1777984179 | 8.33° C | - | 1009.9 hPa | 0 mm | 1.79 m/s, 326° | - | - |
| 1777983852 | 8.33° C | - | 1009.9 hPa | 0 mm | 2.24 m/s, 302° | - | - |
| 1777983577 | 8.33° C | - | 1009.9 hPa | 0 mm | 2.24 m/s, 302° | - | - |
| 1777983289 | 7.22° C | - | 1009.9 hPa | 0 mm | 1.79 m/s, 304° | - | - |
| 1777983081 | 6.11° C | - | 1009.9 hPa | 0 mm | 2.24 m/s, 308° | - | - |
| 1777982977 | 6.11° C | - | 1009.9 hPa | 0 mm | 2.24 m/s, 308° | - | - |
| 1777982626 | 6.11° C | - | 1009.5 hPa | 0 mm | 0.89 m/s, 311° | - | - |
* Rain latest hour (hover to see other rain measurements)
** Current wind speed in m/s (hover to see current wind gust speed)